Weather History for Elmira, NY

Change the Weather History Date:

Wednesday, July 4, 2012

  Actual Average Record
Temperature  
Mean Temperature 78 °F -  
Max Temperature 93 °F 80 °F 99 °F (1966)
Min Temperature 64 °F 56 °F 43 °F (1971)
Cooling Degree Days 12    
Growing Degree Days 28 (Base 50)    
Moisture  
Dew Point 68 °F    
Average Humidity 72    
Maximum Humidity 91    
Minimum Humidity 43    
Precipitation  
Precipitation 0.15 in - - ()
Sea Level Pressure  
Sea Level Pressure 29.81 in    
Wind  
Wind Speed 6 mph (WSW)    
Max Wind Speed 14 mph    
Max Gust Speed 22 mph    
Visibility 9 miles    
Events Rain , Thunderstorm    
Averages and records for this station are not official NWS values.
T = Trace of Precipitation, MM = Missing Value Source: NWS Daily Summary

Daily Weather History Graph

Daily Weather History Graph

Search for Another Location

Airport:

Trip Planner

Search our weather history database for the weather conditions in past years. The results will help you decide how hot, cold, wet, or windy it might be!

Date:

Astronomy

Jul. 04, 2012 Rise Set
Actual Time 5:37 AM EDT 8:46 PM EDT
Civil Twilight 5:02 AM EDT 9:20 PM EDT
Nautical Twilight 4:18 AM EDT 10:04 PM EDT
Astronomical Twilight 3:26 AM EDT 10:57 PM EDT
Moon 9:21 PM EDT (7/4) 6:38 AM EDT (7/4)
Length of Visible Light 16h 18m
Length of Day
15h 09m
Full, 99% of the Moon is Illuminated
Jul 4
Full
Jul 10
Last Quarter
Jul 19
New
Jul 26
First Quarter
Aug 1
Full

Hourly Weather History & Observations

Time (EDT) Temp. Heat Index Dew Point Humidity Pressure Visibility Wind Dir Wind Speed Gust Speed Precip Events Conditions
12:53 AM 71.1 °F - 64.9 °F 81% 29.85 in 10.0 mi WSW 4.6 mph - 0.01 in   Overcast
1:53 AM 70.0 °F - 64.0 °F 81% 29.84 in 10.0 mi SW 5.8 mph - N/A   Clear
2:53 AM 66.9 °F - 64.0 °F 90% 29.83 in 10.0 mi West 3.5 mph - N/A   Clear
3:53 AM 66.9 °F - 64.0 °F 90% 29.83 in 10.0 mi West 4.6 mph - N/A   Clear
4:53 AM 64.9 °F - 62.1 °F 90% 29.84 in 9.0 mi SW 3.5 mph - N/A   Partly Cloudy
5:53 AM 64.9 °F - 62.1 °F 90% 29.87 in 6.0 mi Calm Calm - N/A   Mostly Cloudy
6:53 AM 66.0 °F - 63.0 °F 90% 29.86 in 7.0 mi WSW 4.6 mph - N/A   Clear
7:53 AM 71.1 °F - 64.0 °F 78% 29.87 in 10.0 mi WSW 9.2 mph - N/A   Clear
8:53 AM 73.9 °F - 64.0 °F 71% 29.87 in 10.0 mi WSW 10.4 mph - N/A   Clear
9:53 AM 78.1 °F - 64.9 °F 64% 29.85 in 10.0 mi SW 12.7 mph - N/A   Clear
10:53 AM 82.0 °F 84.5 °F 66.9 °F 60% 29.85 in 10.0 mi SW 10.4 mph - N/A   Clear
11:53 AM 84.9 °F 87.1 °F 66.0 °F 53% 29.82 in 10.0 mi SW 11.5 mph - N/A   Clear
12:53 PM 88.0 °F 90.3 °F 66.0 °F 48% 29.81 in 10.0 mi WSW 10.4 mph - N/A   Partly Cloudy
1:53 PM 90.0 °F 92.4 °F 66.0 °F 45% 29.80 in 10.0 mi West 11.5 mph - N/A   Mostly Cloudy
2:53 PM 90.0 °F 92.8 °F 66.9 °F 46% 29.78 in 10.0 mi West 10.4 mph 17.3 mph N/A   Mostly Cloudy
3:53 PM 91.9 °F 95.4 °F 66.9 °F 44% 29.77 in 10.0 mi WNW 13.8 mph 21.9 mph N/A   Partly Cloudy
4:53 PM 91.0 °F 95.2 °F 68.0 °F 47% 29.76 in 10.0 mi WNW 8.1 mph - N/A   Mostly Cloudy
5:53 PM 91.4 °F 94.0 °F 66.2 °F 43% 29.77 in 10.0 mi WNW 9.2 mph - N/A   Clear
6:04 PM 89.6 °F 94.7 °F 69.8 °F 52% 29.76 in 10.0 mi WSW 12.7 mph 17.3 mph N/A Thunderstorm Clear
6:46 PM 84.2 °F 88.4 °F 69.8 °F 62% 29.76 in 10.0 mi SW 8.1 mph - N/A   Mostly Cloudy
6:53 PM 84.0 °F 88.4 °F 70.0 °F 63% 29.74 in 10.0 mi West 5.8 mph - N/A   Mostly Cloudy
7:20 PM 80.6 °F 85.4 °F 73.4 °F 79% 29.77 in 10.0 mi WNW 6.9 mph - 0.01 in Thunderstorm Mostly Cloudy
7:48 PM 82.4 °F 88.2 °F 73.4 °F 74% 29.77 in 10.0 mi West 3.5 mph - 0.01 in   Partly Cloudy
7:53 PM 82.0 °F 87.4 °F 73.0 °F 74% 29.75 in 10.0 mi West 4.6 mph - 0.01 in   Partly Cloudy
8:53 PM 78.1 °F - 75.0 °F 90% 29.76 in 8.0 mi SW 3.5 mph - N/A   Clear
9:43 PM 77.0 °F - 73.4 °F 89% 29.81 in 2.0 mi SW 5.8 mph - 0.13 in Rain Light Rain
9:51 PM 77.0 °F - 73.4 °F 89% 29.81 in 7.0 mi WSW 4.6 mph - 0.13 in Rain , Thunderstorm Light Rain
9:52 PM 77.0 °F - 73.9 °F 90% 29.79 in 7.0 mi WSW 4.6 mph - 0.13 in Thunderstorm Overcast
10:22 PM 75.2 °F - 71.6 °F 89% 29.81 in 7.0 mi WSW 4.6 mph - N/A   Scattered Clouds
10:53 PM 75.9 °F - 73.0 °F 91% 29.80 in 6.0 mi West 3.5 mph - N/A   Mostly Cloudy
11:53 PM 75.0 °F - 72.0 °F 90% 29.80 in 4.0 mi Calm Calm - N/A   Scattered Clouds